User: anonymous   Login
Location: Albany
(35.0000°S, 118.0000°E)
Time: 13:04:20
(UTC-04:00)
Language:

Centaur D-1AR AC-48 - Orbit

View from above orbital plane
View from above orbital plane
View from above satellite
View from above satellite

Ground track
Ground track

The orbit data is extracted from the following two-line orbital elements,

1 10779U 78035B   18170.72914691 +.00000019 +00000-0 +11314-2 0  9995
2 10779 021.5754 301.9422 7175414 240.2792 034.4703 02.22655304326838
Epoch (UTC): 19 June 2018 17:29:58
Eccentricity: 0.7175414
inclination: 21.5754°
perigee height: 619 km
apogee height: 36170 km
right ascension of ascending node: 301.9422°
argument of perigee: 240.2792°
revolutions per day: 2.22655304
mean anomaly at epoch: 34.4703°
orbit number at epoch: 32683

The dashed part of the orbit path shows where the satellite is in the earth's shadow,  

DLR